Weather History for KJAX - February, 2013

Change the Weather History Date:

Saturday, February 9, 2013

  Actual Average Record
Temperature  
Mean Temperature 55 °F 56 °F  
Max Temperature 65 °F 67 °F 88 °F (1937)
Min Temperature 44 °F 44 °F 19 °F (1895)
Degree Days  
Heating Degree Days 10 10  
Month to date heating degree days 94 95  
Since 1 July heating degree days 751 971  
Cooling Degree Days 0 1  
Month to date cooling degree days 1 4  
Year to date cooling degree days 42 15  
Growing Degree Days 4 (Base 50)    
Moisture  
Dew Point 43 °F    
Average Humidity 68    
Maximum Humidity 100    
Minimum Humidity 36    
Precipitation  
Precipitation 0.00 in 0.11 in 1.64 in (1973)
Month to date precipitation 0.02 0.97  
Year to date precipitation 1.03 4.27  
Snow  
Snow 0.00 in 0.00 in T in (1941)
Month to date snowfall 0.0 0.0  
Since 1 July snowfall 0.0 T  
Snow Depth 0.00 in    
Sea Level Pressure  
Sea Level Pressure 30.21 in    
Wind  
Wind Speed 7 mph (NNE)    
Max Wind Speed 18 mph    
Max Gust Speed 22 mph    
Visibility 10 miles    
Events      
T = Trace of Precipitation, MM = Missing Value Source: NWS Daily Summary

Daily Weather History Graph

Daily Weather History Graph

Search for Another Location

Airport or City:

Trip Planner

Search our weather history database for the weather conditions in past years. The results will help you decide how hot, cold, wet, or windy it might be!

Date:

Astronomy

Feb. 09, 2013 Rise Set
Actual Time 7:12 AM EST 6:10 PM EST
Civil Twilight 6:47 AM EST 6:35 PM EST
Nautical Twilight 6:18 AM EST 7:03 PM EST
Astronomical Twilight 5:50 AM EST 7:31 PM EST
Moon 6:23 AM EST (2/9) 5:49 PM EST (2/9)
Length of Visible Light 11h 47m
Length of Day
10h 58m
Waning Crescent, 0% of the Moon is Illuminated
Feb 9
Waning Crescent
Feb 10
New
Feb 17
First Quarter
Feb 25
Full
Mar 4
Last Quarter

Hourly Weather History & Observations

Time (EST) Temp. Windchill Dew Point Humidity Pressure Visibility Wind Dir Wind Speed Gust Speed Precip Events Conditions
12:56 AM 46.9 °F - 46.0 °F 97% 30.10 in 10.0 mi Calm Calm - N/A   Clear
1:56 AM 48.9 °F - 46.9 °F 93% 30.11 in 10.0 mi NW 5.8 mph - N/A   Clear
2:56 AM 51.1 °F - 48.9 °F 92% 30.12 in 10.0 mi NNW 4.6 mph - N/A   Clear
3:56 AM 48.9 °F - 46.9 °F 93% 30.12 in 10.0 mi NW 3.5 mph - N/A   Clear
4:56 AM 48.0 °F - 46.0 °F 93% 30.15 in 10.0 mi NNW 5.8 mph - N/A   Clear
5:56 AM 46.9 °F - 45.0 °F 93% 30.17 in 10.0 mi NNW 6.9 mph - N/A   Clear
6:56 AM 45.0 °F 42.6 °F 43.0 °F 93% 30.20 in 10.0 mi North 4.6 mph - N/A   Clear
7:56 AM 46.0 °F 43.9 °F 43.0 °F 89% 30.21 in 10.0 mi North 4.6 mph - N/A   Clear
8:56 AM 50.0 °F - 46.0 °F 86% 30.23 in 10.0 mi NNE 6.9 mph - N/A   Clear
9:56 AM 55.9 °F - 48.9 °F 77% 30.25 in 10.0 mi ENE 6.9 mph - N/A   Partly Cloudy
10:56 AM 62.1 °F - 46.0 °F 56% 30.27 in 10.0 mi NNE 10.4 mph - N/A   Partly Cloudy
11:56 AM 63.0 °F - 44.1 °F 50% 30.27 in 10.0 mi ENE 12.7 mph - N/A   Partly Cloudy
12:56 PM 64.9 °F - 43.0 °F 45% 30.25 in 10.0 mi ENE 11.5 mph - N/A   Scattered Clouds
1:56 PM 64.0 °F - 39.9 °F 41% 30.23 in 10.0 mi East 16.1 mph 20.7 mph N/A   Scattered Clouds
2:56 PM 64.4 °F - 39.2 °F 40% 30.22 in 10.0 mi NE 15.0 mph 21.9 mph N/A   Scattered Clouds
3:56 PM 62.6 °F - 35.6 °F 37% 30.24 in 10.0 mi NE 15.0 mph - N/A   Scattered Clouds
4:56 PM 60.8 °F - 37.4 °F 42% 30.25 in 10.0 mi ENE 13.8 mph - N/A   Scattered Clouds
5:56 PM 55.0 °F - 37.9 °F 53% 30.25 in 10.0 mi ENE 9.2 mph - N/A   Partly Cloudy
6:56 PM 51.1 °F - 39.0 °F 63% 30.25 in 10.0 mi NE 3.5 mph - N/A   Partly Cloudy
7:56 PM 48.0 °F - 39.9 °F 74% 30.26 in 10.0 mi North 3.5 mph - N/A   Clear
8:56 PM 45.0 °F - 39.9 °F 82% 30.27 in 10.0 mi Calm Calm - N/A   Clear
9:56 PM 45.0 °F - 39.9 °F 82% 30.29 in 10.0 mi Calm Calm - N/A   Clear
10:56 PM 45.0 °F 41.2 °F 42.1 °F 90% 30.27 in 10.0 mi NE 6.9 mph - N/A   Clear
11:56 PM 48.0 °F - 44.1 °F 86% 30.28 in 10.0 mi NE 5.8 mph - N/A   Clear